Location: Newark
(53.9000°S, 71.3000°W)
Time: 13:11:27
(UTC+00:00)

OTV 5 (USA 277) - Visible Passes

Search period start: 25 August 2019 00:00
Search period end: 04 September 2019 00:00
Orbit: 305 x 329 km, 54.5° (Epoch: 20 August)

Date Brightness Start Highest point End Pass type
(mag) Time Alt. Az. Time Alt. Az. Time Alt. Az.
01 Sep ? 09:56:17 10° NNE 09:57:37 13° NE 09:58:57 10° ENE visible
02 Sep ? 10:09:37 10° NNW 10:11:55 23° NE 10:14:14 10° E visible
03 Sep ? 10:23:40 10° NW 10:26:19 40° NNE 10:28:59 10° E visible
